DW4466 Weather Reports


Display with metric or nautical units.
time (UTC)temp
F
wind
direction
speed
MPH
gust
MPH
rain 1hr
in
rain 24hr
in
rain mn
in
humidity
%
barometer
mb
20260504233523 72 270 5.0 19.0 0.00 0.00 0.00 45 1007.5
20260504233039 72 315 2.0 20.0 0.00 0.00 0.00 45 1007.3
20260504232515 72 298 4.0 15.0 0.00 0.00 0.00 45 1007.4
20260504232047 72 294 5.0 17.0 0.00 0.00 0.00 45 1007.3
20260504231527 72 271 8.0 17.0 0.00 0.00 0.00 44 1007.2
20260504231056 72 313 7.0 18.0 0.00 0.00 0.00 43 1007.2
20260504230516 72 274 7.0 14.0 0.00 0.00 0.00 44 1007.2
20260504230044 72 295 7.0 12.0 0.00 0.00 0.00 44 1007.2
20260504225515 73 321 4.0 14.0 0.00 0.00 0.00 44 1007.2
20260504225048 73 290 6.0 14.0 0.00 0.00 0.00 43 1007.2
20260504224526 73 223 5.0 16.0 0.00 0.00 0.00 44 1007.1
20260504224040 73 276 6.0 16.0 0.00 0.00 0.00 43 1007.2
20260504223516 73 307 5.0 14.0 0.00 0.00 0.00 42 1007.2
20260504223102 74 300 5.0 17.0 0.00 0.00 0.00 42 1007.1
20260504222523 74 256 9.0 19.0 0.00 0.00 0.00 40 1007.1
20260504222058 75 257 10.0 19.0 0.00 0.00 0.00 40 1007.1
20260504221532 75 278 9.0 17.0 0.00 0.00 0.00 40 1007.0
20260504221005 75 273 6.0 16.0 0.00 0.00 0.00 39 1007.1
20260504220518 75 255 7.0 18.0 0.00 0.00 0.00 39 1007.1
20260504220052 75 335 8.0 18.0 0.00 0.00 0.00 39 1007.1
20260504215518 76 262 10.0 21.0 0.00 0.00 0.00 38 1007.1
20260504215050 76 194 8.0 16.0 0.00 0.00 0.00 38 1007.0
20260504214510 76 263 6.0 17.0 0.00 0.00 0.00 38 1007.0
20260504214048 75 272 3.0 17.0 0.00 0.00 0.00 40 1007.0
20260504213516 76 263 7.0 16.0 0.00 0.00 0.00 39 1006.9
20260504213048 76 288 7.0 18.0 0.00 0.00 0.00 39 1007.0
20260504212520 76 318 10.0 18.0 0.00 0.00 0.00 37 1007.1
20260504212053 77 338 7.0 17.0 0.00 0.00 0.00 37 1007.1
20260504211535 77 284 3.0 11.0 0.00 0.00 0.00 38 1007.0
20260504211047 77 354 3.0 15.0 0.00 0.00 0.00 40 1007.0
20260504210516 76 265 5.0 15.0 0.00 0.00 0.00 38 1007.0
20260504210053 76 252 7.0 11.0 0.00 0.00 0.00 39 1007.0
20260504205523 75 324 4.0 10.0 0.00 0.00 0.00 38 1007.1
20260504205055 76 275 3.0 8.0 0.00 0.00 0.00 39 1007.1
20260504204518 75 242 2.0 15.0 0.00 0.00 0.00 40 1007.0
20260504204044 75 250 5.0 15.0 0.00 0.00 0.00 39 1007.2
20260504203516 74 296 2.0 10.0 0.00 0.00 0.00 40 1007.2
20260504203050 74 323 4.0 11.0 0.00 0.00 0.00 41 1007.3
20260504202528 74 313 3.0 14.0 0.00 0.00 0.00 40 1007.4
20260504202044 74 237 4.0 16.0 0.00 0.00 0.00 39 1007.6
20260504201514 74 259 7.0 16.0 0.00 0.00 0.00 37 1007.6
20260504201048 74 296 5.0 14.0 0.00 0.00 0.00 38 1007.5
20260504200522 75 290 4.0 14.0 0.00 0.00 0.00 39 1007.7
20260504200055 75 304 5.0 13.0 0.00 0.00 0.00 37 1007.7
20260504195523 75 266 9.0 17.0 0.00 0.00 0.00 39 1007.8
20260504195057 75 284 8.0 17.0 0.00 0.00 0.00 36 1007.7
20260504194526 74 282 6.0 14.0 0.00 0.00 0.00 39 1007.9
20260504194058 74 269 3.0 11.0 0.00 0.00 0.00 38 1008.0
20260504193528 74 249 5.0 15.0 0.00 0.00 0.00 38 1008.2
20260504193110 74 240 3.0 17.0 0.00 0.00 0.00 38 1008.4
20260504193001 74 259 4.0 18.0 0.00 0.00 0.00 38 1008.4
20260504192533 74 247 6.0 18.0 0.00 0.00 0.00 37 1008.4
20260504192005 74 269 3.0 15.0 0.00 0.00 0.00 40 1008.6
20260504191537 74 251 7.0 15.0 0.00 0.00 0.00 38 1008.7
20260504191010 74 271 6.0 17.0 0.00 0.00 0.00 38 1008.7
20260504190544 74 288 6.0 17.0 0.00 0.00 0.00 41 1008.6
20260504190012 74 236 8.0 13.0 0.00 0.00 0.00 38 1008.7
20260504185544 74 322 5.0 14.0 0.00 0.00 0.00 39 1008.8
20260504185005 74 346 6.0 14.0 0.00 0.00 0.00 39 1008.9
20260504184549 74 218 5.0 14.0 0.00 0.00 0.00 40 1009.1
20260504184014 74 231 7.0 14.0 0.00 0.00 0.00 39 1009.1
20260504183551 73 261 3.0 13.0 0.00 0.00 0.00 39 1009.3
20260504183018 73 49 6.0 13.0 0.00 0.00 0.00 43 1009.4
20260504182551 73 281 8.0 17.0 0.00 0.00 0.00 39 1009.3
20260504182007 73 281 8.0 12.0 0.00 0.00 0.00 38 1009.6
20260504181539 73 267 4.0 14.0 0.00 0.00 0.00 41 1009.6
20260504181016 72 279 5.0 14.0 0.00 0.00 0.00 39 1009.7
20260504180550 72 111 5.0 14.0 0.00 0.00 0.00 41 1009.6
20260504180027 72 353 4.0 13.0 0.00 0.00 0.00 42 1009.8
20260504175551 72 359 5.0 11.0 0.00 0.00 0.00 41 1009.8
20260504175027 72 281 3.0 11.0 0.00 0.00 0.00 41 1010.0
20260504174558 72 298 4.0 16.0 0.00 0.00 0.00 41 1009.9
20260504174034 72 288 9.0 16.0 0.00 0.00 0.00 41 1010.1
20260504173504 72 293 4.0 18.0 0.00 0.00 0.00 40 1010.2
20260504173035 71 203 6.0 18.0 0.00 0.00 0.00 44 1010.2
20260504172547 71 293 5.0 16.0 0.00 0.00 0.00 43 1010.2
20260504172021 71 283 7.0 16.0 0.00 0.00 0.00 44 1010.3
20260504171555 71 246 9.0 16.0 0.00 0.00 0.00 40 1010.3
20260504171031 71 264 8.0 16.0 0.00 0.00 0.00 41 1010.4
20260504170505 71 277 8.0 12.0 0.00 0.00 0.00 40 1010.5
20260504151027 66 272 2.0 14.0 0.00 0.00 0.00 45 1012.1
20260504150559 66 289 4.0 13.0 0.00 0.00 0.00 44 1012.2
20260504150503 66 295 4.0 13.0 0.00 0.00 0.00 44 1012.2
20260504141013 63 184 1.0 8.0 0.00 0.00 0.00 49 1012.4
20260504140543 62 250 1.0 7.0 0.00 0.00 0.00 48 1012.4
20260504130535 57 138 0.0 4.0 0.00 0.00 0.00 55 1013.0
20260504110548 43 345 0.0 2.0 0.00 0.00 0.00 87 1013.5
20260504100542 42 314 0.0 1.0 0.00 0.00 0.00 84 1013.4
20260504081505 42 314 0.0 2.0 0.00 0.00 0.00 85 1013.9
20260504081040 42 314 0.0 2.0 0.00 0.00 0.00 85 1013.9
20260504080511 42 231 0.0 0.0 0.00 0.00 0.00 86 1013.8
20260504050523 40 327 0.0 0.0 0.00 0.00 0.00 79 1014.6
20260504045530 40 327 0.0 2.0 0.00 0.00 0.00 79 1014.7
20260504045048 40 327 0.0 2.0 0.00 0.00 0.00 79 1014.8
20260504044519 41 351 0.0 0.0 0.00 0.00 0.00 80 1014.6
20260504044051 41 351 0.0 1.0 0.00 0.00 0.00 80 1014.5
20260504043519 41 351 0.0 2.0 0.00 0.00 0.00 79 1014.6
20260504043037 41 351 0.0 2.0 0.00 0.00 0.00 77 1014.5
20260504042509 41 23 0.0 2.0 0.00 0.00 0.00 76 1014.5
20260504042048 41 23 0.0 2.0 0.00 0.00 0.00 75 1014.5
20260504041529 41 23 1.0 2.0 0.00 0.00 0.00 76 1014.5
20260504041048 41 23 1.0 2.0 0.00 0.00 0.00 76 1014.4
20260504040508 41 23 1.0 2.0 0.00 0.00 0.00 79 1014.4
20260504040040 41 23 0.0 2.0 0.00 0.00 0.00 77 1014.5
20260504035508 41 293 0.0 0.0 0.00 0.00 0.00 74 1014.4
20260504035038 42 293 0.0 0.0 0.00 0.00 0.00 74 1014.4
20260504034506 42 293 0.0 0.0 0.00 0.00 0.00 75 1014.4
20260504034022 42 293 0.0 2.0 0.00 0.00 0.00 75 1014.5
20260504033553 42 293 0.0 2.0 0.00 0.00 0.00 74 1014.5
20260504033023 42 279 1.0 3.0 0.00 0.00 0.00 74 1014.4
20260504032557 42 268 1.0 3.0 0.00 0.00 0.00 72 1014.4
20260504032031 42 339 0.0 2.0 0.00 0.00 0.00 72 1014.3
20260504031507 43 339 1.0 2.0 0.00 0.00 0.00 75 1014.2
20260504031022 43 325 0.0 2.0 0.00 0.00 0.00 73 1014.2
20260504030558 43 325 0.0 2.0 0.00 0.00 0.00 73 1014.2
20260504030500 43 294 0.0 3.0 0.00 0.00 0.00 73 1014.2
20260504030026 44 288 0.0 3.0 0.00 0.00 0.00 70 1014.1
20260504025600 44 273 2.0 3.0 0.00 0.00 0.00 70 1014.1
20260504025503 44 271 2.0 3.0 0.00 0.00 0.00 69 1014.0
20260504025035 44 19 0.0 3.0 0.00 0.00 0.00 68 1013.9
20260504024550 44 34 1.0 3.0 0.00 0.00 0.00 68 1013.9
20260504024020 44 29 0.0 0.0 0.00 0.00 0.00 68 1014.0
20260504023556 44 23 0.0 0.0 0.00 0.00 0.00 68 1013.9
20260504023037 45 354 0.0 0.0 0.00 0.00 0.00 69 1013.9
20260504022506 45 354 0.0 0.0 0.00 0.00 0.00 67 1013.9
20260504022016 46 354 0.0 0.0 0.00 0.00 0.00 71 1013.9
20260504021551 46 354 0.0 0.0 0.00 0.00 0.00 68 1013.9
20260504021022 46 354 0.0 0.0 0.00 0.00 0.00 66 1013.7
20260504020600 46 354 0.0 0.0 0.00 0.00 0.00 64 1013.6
20260504020500 47 354 0.0 0.0 0.00 0.00 0.00 63 1013.6
20260504020028 47 354 0.0 0.0 0.00 0.00 0.00 58 1013.6
20260504015604 47 354 0.0 0.0 0.00 0.00 0.00 61 1013.5
20260504015504 48 354 0.0 0.0 0.00 0.00 0.00 62 1013.5
20260504015039 48 354 0.0 0.0 0.00 0.00 0.00 62 1013.5
20260504014523 48 354 0.0 0.0 0.00 0.00 0.00 62 1013.5
20260504014046 49 354 0.0 0.0 0.00 0.00 0.00 61 1013.4
20260504013518 49 354 0.0 0.0 0.00 0.00 0.00 58 1013.4
20260504013040 50 19 0.0 0.0 0.00 0.00 0.00 55 1013.3
20260504012506 51 42 0.0 0.0 0.00 0.00 0.00 50 1013.2
20260504012042 51 42 0.0 0.0 0.00 0.00 0.00 49 1013.2
20260504011512 51 42 0.0 0.0 0.00 0.00 0.00 47 1013.2
20260504011044 52 42 0.0 0.0 0.00 0.00 0.00 46 1013.1
20260504010516 52 42 0.0 0.0 0.00 0.00 0.00 45 1013.2
20260504010053 53 42 0.0 0.0 0.00 0.00 0.00 45 1013.2
20260504005522 53 42 0.0 0.0 0.00 0.00 0.00 42 1013.2
20260504005056 53 42 0.0 0.0 0.00 0.00 0.00 41 1013.2
20260504004526 54 42 0.0 0.0 0.00 0.00 0.00 42 1013.1
20260504004101 54 42 0.0 0.0 0.00 0.00 0.00 41 1013.1
20260504004003 54 42 0.0 0.0 0.00 0.00 0.00 42 1013.1
20260504003539 55 42 0.0 0.0 0.00 0.00 0.00 43 1013.1
20260504003008 56 42 0.0 0.0 0.00 0.00 0.00 41 1013.0
20260504002524 56 42 0.0 0.0 0.00 0.00 0.00 39 1012.9
20260504002058 57 42 0.0 0.0 0.00 0.00 0.00 38 1012.9
20260504001538 57 42 0.0 0.0 0.00 0.00 0.00 37 1012.8
20260504001100 57 42 0.0 1.0 0.00 0.00 0.00 36 1012.9
20260504001002 58 42 0.0 1.0 0.00 0.00 0.00 36 1012.9
20260504000536 58 42 0.0 2.0 0.00 0.00 0.00 36 1013.0
20260504000052 58 42 0.0 3.0 0.00 0.00 0.00 36 1013.0
20260503235524 59 22 1.0 4.0 0.00 0.00 0.00 36 1013.0
20260503235055 59 30 1.0 6.0 0.00 0.00 0.00 34 1012.9
20260503234524 59 39 3.0 7.0 0.00 0.00 0.00 35 1012.9
20260503234100 60 20 2.0 8.0 0.00 0.00 0.00 35 1012.8